GW6990 Weather Reports


time (UTC)temp
F
wind
direction
speed
knots
gust
knots
rain 1hr
in
rain 24hr
in
rain mn
in
humidity
%
barometer
mb
20260504035446 56 280 0.0 0.0 0.00 0.00 0.00 69 1022.6
20260504034942 56 251 0.0 0.0 0.00 0.00 0.00 70 1022.6
20260504034440 57 233 0.0 0.0 0.00 0.00 0.00 73 1022.6
20260504033937 57 232 0.0 0.0 0.00 0.00 0.00 73 1022.5
20260504033434 58 178 0.0 0.0 0.00 0.00 0.00 72 1022.6
20260504032931 58 189 0.0 0.0 0.00 0.00 0.00 71 1022.6
20260504032428 59 311 0.0 0.0 0.00 0.00 0.00 62 1022.5
20260504031925 59 311 0.0 0.0 0.00 0.00 0.00 62 1022.8
20260504031422 59 307 0.0 0.0 0.00 0.00 0.00 65 1022.6
20260504030919 60 307 0.0 0.0 0.00 0.00 0.00 63 1022.7
20260504030416 60 305 0.0 0.0 0.00 0.00 0.00 62 1022.8
20260504025912 60 282 0.0 0.0 0.00 0.00 0.00 59 1022.7
20260504025409 61 274 0.0 0.0 0.00 0.00 0.00 57 1022.8
20260504024906 61 289 0.0 0.0 0.00 0.00 0.00 58 1022.8
20260504024402 61 298 0.0 0.0 0.00 0.00 0.00 58 1022.4
20260504023900 61 294 0.0 0.0 0.00 0.00 0.00 60 1022.7
20260504023356 61 281 0.0 0.9 0.00 0.00 0.00 59 1022.5
20260504022851 61 263 0.0 0.0 0.00 0.00 0.00 56 1022.6
20260504022348 62 304 0.9 1.7 0.00 0.00 0.00 56 1022.4
20260504021845 61 281 0.9 0.9 0.00 0.00 0.00 57 1022.5
20260504021342 61 268 0.0 0.9 0.00 0.00 0.00 58 1022.3
20260504020839 61 295 0.0 0.0 0.00 0.00 0.00 57 1022.2
20260504020336 61 288 0.9 0.9 0.00 0.00 0.00 57 1022.1
20260504015832 61 295 0.0 0.0 0.00 0.00 0.00 57 1022.1
20260504015328 62 306 0.0 0.0 0.00 0.00 0.00 57 1022.2
20260504014825 62 292 0.0 0.0 0.00 0.00 0.00 55 1022.0
20260504014320 62 311 0.0 0.0 0.00 0.00 0.00 56 1022.0
20260504013819 62 307 0.0 0.0 0.00 0.00 0.00 56 1022.1
20260504013316 63 323 0.0 0.0 0.00 0.00 0.00 54 1021.8
20260504012813 63 327 0.0 0.0 0.00 0.00 0.00 53 1021.8
20260504012310 64 321 0.0 0.0 0.00 0.00 0.00 52 1021.8
20260504011808 65 302 0.0 0.0 0.00 0.00 0.00 51 1021.8
20260504011304 65 287 0.0 0.0 0.00 0.00 0.00 50 1021.9
20260504010800 65 304 0.0 0.9 0.00 0.00 0.00 48 1021.8
20260504010255 65 281 0.0 0.0 0.00 0.00 0.00 47 1021.7
20260504005753 66 285 0.0 0.9 0.00 0.00 0.00 48 1021.3
20260504005249 66 277 0.0 0.0 0.00 0.00 0.00 49 1021.5
20260504004747 66 320 0.9 0.9 0.00 0.00 0.00 50 1021.6
20260504004244 67 276 0.0 0.0 0.00 0.00 0.00 49 1021.3
20260504003741 67 281 0.0 0.0 0.00 0.00 0.00 48 1021.4
20260504003238 68 272 0.0 0.9 0.00 0.00 0.00 47 1021.3
20260504002734 68 313 0.0 0.0 0.00 0.00 0.00 45 1021.3
20260504002231 69 318 0.0 0.0 0.00 0.00 0.00 45 1021.0
20260504001729 70 285 0.0 0.0 0.00 0.00 0.00 44 1021.2
20260504001226 71 266 0.0 0.0 0.00 0.00 0.00 41 1021.3
20260504000722 71 266 0.9 0.9 0.00 0.00 0.00 41 1021.2
20260504000219 73 272 0.0 0.0 0.00 0.00 0.00 40 1021.1
20260503235718 74 257 0.0 0.0 0.00 0.00 0.00 37 1021.2
20260503235214 75 259 0.9 0.9 0.00 0.00 0.00 34 1021.2
20260503234712 75 251 0.0 0.0 0.00 0.00 0.00 34 1021.3
20260503234210 75 302 0.9 0.9 0.00 0.00 0.00 34 1020.9
20260503233707 76 278 1.7 1.7 0.00 0.00 0.00 32 1020.9
20260503233202 76 281 1.7 2.6 0.00 0.00 0.00 32 1021.0
20260503232659 76 263 0.9 0.9 0.00 0.00 0.00 32 1021.2
20260503232157 77 283 1.7 3.5 0.00 0.00 0.00 31 1021.2
20260503231655 78 273 0.9 0.9 0.00 0.00 0.00 31 1021.3
20260503231151 78 30 0.0 0.9 0.00 0.00 0.00 30 1021.2
20260503230648 78 239 0.0 0.0 0.00 0.00 0.00 31 1021.4
20260503230145 77 282 1.7 1.7 0.00 0.00 0.00 29 1021.5
20260503225642 77 292 0.9 0.9 0.00 0.00 0.00 30 1021.2
20260503225142 77 347 2.6 3.5 0.00 0.00 0.00 29 1021.1
20260503224640 77 252 4.3 5.2 0.00 0.00 0.00 27 1021.2
20260503224137 78 274 1.7 1.7 0.00 0.00 0.00 28 1021.0
20260503223635 78 238 0.0 0.0 0.00 0.00 0.00 26 1021.1
20260503223131 78 45 0.9 0.9 0.00 0.00 0.00 28 1021.2
20260503222629 78 241 2.6 2.6 0.00 0.00 0.00 26 1021.2
20260503222126 78 197 1.7 1.7 0.00 0.00 0.00 27 1021.2
20260503221625 78 295 1.7 2.6 0.00 0.00 0.00 30 1021.1
20260503221122 78 282 2.6 3.5 0.00 0.00 0.00 26 1021.2
20260503220618 78 265 5.2 7.0 0.00 0.00 0.00 26 1021.0
20260503220115 79 291 1.7 2.6 0.00 0.00 0.00 26 1021.1
20260503215612 78 232 0.0 0.0 0.00 0.00 0.00 27 1021.2
20260503215108 78 242 1.7 1.7 0.00 0.00 0.00 25 1021.2
20260503214607 78 247 1.7 2.6 0.00 0.00 0.00 26 1021.3
20260503214103 79 291 4.3 6.1 0.00 0.00 0.00 25 1021.3
20260503213602 78 343 3.5 5.2 0.00 0.00 0.00 29 1021.2
20260503213058 78 283 3.5 5.2 0.00 0.00 0.00 26 1021.5
20260503212555 78 294 3.5 3.5 0.00 0.00 0.00 26 1021.5
20260503212053 78 306 4.3 5.2 0.00 0.00 0.00 26 1021.8
20260503211550 78 6 0.0 0.0 0.00 0.00 0.00 27 1021.4
20260503211045 78 272 4.3 7.0 0.00 0.00 0.00 26 1021.8
20260503210542 79 294 5.2 9.6 0.00 0.00 0.00 26 1021.8
20260503210038 79 358 1.7 1.7 0.00 0.00 0.00 30 1021.6
20260503205535 78 90 0.9 1.7 0.00 0.00 0.00 28 1021.6
20260503205031 78 266 4.3 5.2 0.00 0.00 0.00 26 1022.0
20260503204528 78 297 6.1 7.8 0.00 0.00 0.00 26 1021.8
20260503204025 78 294 4.3 6.1 0.00 0.00 0.00 26 1022.1
20260503203523 78 285 4.3 5.2 0.00 0.00 0.00 28 1022.0
20260503203020 77 239 3.5 3.5 0.00 0.00 0.00 26 1022.0
20260503202517 77 285 5.2 7.0 0.00 0.00 0.00 26 1021.9
20260503202015 78 282 3.5 5.2 0.00 0.00 0.00 27 1022.1
20260503201513 78 279 1.7 2.6 0.00 0.00 0.00 29 1022.1
20260503201010 79 211 2.6 2.6 0.00 0.00 0.00 26 1022.3
20260503200506 79 23 1.7 1.7 0.00 0.00 0.00 31 1022.3
20260503200003 77 265 2.6 2.6 0.00 0.00 0.00 28 1022.3
20260503195500 79 259 4.3 5.2 0.00 0.00 0.00 26 1022.4
20260503194956 78 253 2.6 3.5 0.00 0.00 0.00 27 1022.6
20260503194454 79 298 1.7 1.7 0.00 0.00 0.00 25 1022.8
20260503193949 79 245 0.0 0.0 0.00 0.00 0.00 27 1022.8
20260503193445 78 218 0.0 0.9 0.00 0.00 0.00 30 1022.9
20260503192940 77 262 1.7 2.6 0.00 0.00 0.00 27 1023.1
20260503192437 76 225 4.3 6.1 0.00 0.00 0.00 28 1023.0
20260503191932 77 354 1.7 1.7 0.00 0.00 0.00 27 1023.0
20260503191431 77 260 0.9 1.7 0.00 0.00 0.00 27 1023.2
20260503190927 78 237 0.9 0.9 0.00 0.00 0.00 28 1023.2
20260503190424 78 359 1.7 1.7 0.00 0.00 0.00 28 1023.5
20260503185921 78 270 1.7 1.7 0.00 0.00 0.00 30 1023.5
20260503185418 78 226 0.9 0.9 0.00 0.00 0.00 26 1023.5
20260503184916 77 95 3.5 5.2 0.00 0.00 0.00 29 1023.9
20260503184414 77 314 1.7 1.7 0.00 0.00 0.00 30 1023.9
20260503183910 75 223 1.7 3.5 0.00 0.00 0.00 30 1024.0
20260503183406 76 226 3.5 3.5 0.00 0.00 0.00 27 1023.8
20260503182903 75 315 4.3 6.1 0.00 0.00 0.00 27 1024.1
20260503182402 76 273 4.3 6.1 0.00 0.00 0.00 29 1024.0
20260503181859 76 278 3.5 5.2 0.00 0.00 0.00 30 1024.0
20260503181356 76 85 4.3 5.2 0.00 0.00 0.00 29 1024.0
20260503180852 75 248 3.5 6.1 0.00 0.00 0.00 29 1023.9
20260503180351 75 271 2.6 3.5 0.00 0.00 0.00 27 1024.2
20260503175847 76 250 5.2 7.0 0.00 0.00 0.00 26 1023.9
20260503175345 75 346 2.6 2.6 0.00 0.00 0.00 32 1024.1
20260503174841 75 279 6.1 7.8 0.00 0.00 0.00 30 1023.9
20260503174340 75 13 1.7 2.6 0.00 0.00 0.00 28 1024.1
20260503173839 75 334 1.7 1.7 0.00 0.00 0.00 31 1024.2
20260503173336 74 295 5.2 7.0 0.00 0.00 0.00 28 1024.4
20260503172833 75 287 4.3 6.1 0.00 0.00 0.00 28 1024.3
20260503172331 75 247 0.9 0.9 0.00 0.00 0.00 32 1024.4
20260503171831 74 302 5.2 7.0 0.00 0.00 0.00 29 1024.6
20260503171329 74 280 3.5 3.5 0.00 0.00 0.00 28 1024.6
20260503170826 74 289 7.8 12.2 0.00 0.00 0.00 27 1024.7
20260503170322 74 279 4.3 5.2 0.00 0.00 0.00 27 1024.8
20260503150715 73 90 1.7 1.7 0.00 0.00 0.00 37 1025.9
20260503150211 72 152 0.9 0.9 0.00 0.00 0.00 36 1025.9
20260503140135 69 233 0.9 0.9 0.00 0.00 0.00 49 1025.3
20260503131104 61 249 0.9 0.9 0.00 0.00 0.00 61 1024.7
20260503130602 60 330 0.9 1.7 0.00 0.00 0.00 64 1024.6
20260503110452 46 218 0.9 0.9 0.00 0.00 0.00 90 1023.9
20260503090338 47 250 0.0 0.0 0.00 0.00 0.00 89 1023.1
20260503081305 48 292 0.0 0.9 0.00 0.00 0.00 87 1023.0
20260503080801 48 283 0.9 0.9 0.00 0.00 0.00 88 1022.8
20260503080259 47 291 0.0 0.0 0.00 0.00 0.00 89 1022.7
20260503072735 48 309 0.0 0.0 0.00 0.00 0.00 86 1022.6
20260503072232 49 301 0.0 0.0 0.00 0.00 0.00 85 1022.7
20260503071729 49 294 0.0 0.0 0.00 0.00 0.00 85 1022.7
20260503071226 49 294 0.0 0.9 0.00 0.00 0.00 85 1022.6
20260503070722 49 290 0.0 0.0 0.00 0.00 0.00 85 1022.8
20260503070220 49 258 0.0 0.9 0.00 0.00 0.00 85 1022.7
20260503060145 50 290 0.0 0.0 0.00 0.00 0.00 82 1022.3
20260503054632 51 285 0.0 0.0 0.00 0.00 0.00 80 1022.2
20260503054129 51 299 0.9 0.9 0.00 0.00 0.00 80 1022.3
20260503053627 51 295 0.0 0.0 0.00 0.00 0.00 81 1022.4
20260503053126 51 296 0.0 0.0 0.00 0.00 0.00 81 1022.6
20260503052621 51 284 0.0 0.0 0.00 0.00 0.00 81 1022.5
20260503052118 51 283 0.0 0.0 0.00 0.00 0.00 81 1022.4
20260503051613 51 282 0.0 0.0 0.00 0.00 0.00 82 1022.4
20260503051111 51 292 0.0 0.0 0.00 0.00 0.00 82 1022.4
20260503050608 51 292 0.0 0.0 0.00 0.00 0.00 81 1022.1
20260503050105 52 291 0.0 0.0 0.00 0.00 0.00 80 1022.0
20260503045601 52 292 0.0 0.0 0.00 1.11 1.11 79 1022.1
20260503045059 52 292 0.0 0.0 0.00 1.11 1.11 79 1022.1
20260503044555 52 276 0.0 0.0 0.00 1.11 1.11 78 1022.0
20260503044053 52 289 0.0 0.0 0.00 1.11 1.11 78 1022.1
20260503043549 53 268 0.0 0.0 0.00 1.11 1.11 77 1021.9
20260503043046 53 306 0.0 0.9 0.00 1.11 1.11 76 1022.0
20260503042543 53 310 0.0 0.9 0.00 1.11 1.11 74 1022.1
20260503042039 53 294 0.0 0.9 0.00 1.11 1.11 74 1021.8
20260503041536 53 283 0.0 0.9 0.00 1.11 1.11 75 1021.7
20260503041034 53 303 0.0 0.0 0.00 1.11 1.11 76 1021.9
20260503040531 53 285 0.0 0.0 0.00 1.11 1.11 76 1022.0
20260503040028 53 297 0.0 0.0 0.00 1.11 1.11 76 1021.9